Location: Joplin, MO
(37.0842°N, 94.5133°W)
Time: 14:25:35
(UTC+02:00)

deb Explorer IX - All Passes

Search period start: 30 March 2023 00:00
Search period end: 09 April 2023 00:00
Orbit: 536 x 1029 km, 38.8° (Epoch: 28 March)

Date Brightness Start Highest point End Pass type
(mag) Time Alt. Az. Time Alt. Az. Time Alt. Az.
30 Mar - 11:16:33 10° S 11:18:56 13° SE 11:21:12 10° ESE visible
30 Mar - 12:59:50 10° SW 13:04:28 48° SSE 13:08:36 10° E visible
30 Mar - 14:45:52 10° W 14:50:18 75° N 14:54:23 10° ENE daylight
30 Mar - 16:32:08 10° WNW 16:36:17 79° N 16:40:20 10° E daylight
30 Mar - 18:18:13 10° W 18:21:58 37° SSW 18:25:49 10° SE daylight
31 Mar - 10:41:45 10° SSE 10:43:39 12° SE 10:45:28 10° ESE visible
31 Mar - 12:24:26 10° SW 12:29:11 43° SSE 12:33:23 10° E visible
31 Mar - 14:10:25 10° W 14:15:01 79° N 14:19:11 10° ENE daylight
31 Mar - 15:56:47 10° WNW 16:01:01 76° N 16:05:03 10° E daylight
31 Mar - 17:42:53 10° W 17:46:44 43° SSW 17:50:37 10° SE daylight
01 Apr - 10:07:14 10° SSE 10:08:18 11° SE 10:09:21 10° SE visible
01 Apr - 11:48:59 10° SW 11:53:51 39° SSE 11:58:07 10° E visible
01 Apr - 13:34:52 10° W 13:39:40 84° NNW 13:43:56 10° ENE visible
01 Apr - 15:21:20 10° W 15:25:42 73° N 15:29:45 10° E daylight
01 Apr - 17:07:29 10° W 17:11:28 49° SSW 17:15:22 10° SE daylight
01 Apr - 18:55:27 10° SW 18:56:44 11° SW 18:58:00 10° SSW daylight
02 Apr - 11:13:29 10° SW 11:18:25 36° SSE 11:22:47 10° E visible
02 Apr - 12:59:15 10° WSW 13:04:16 89° NNW 13:08:39 10° ENE visible
02 Apr - 14:45:47 10° W 14:50:18 71° N 14:54:26 10° E daylight
02 Apr - 16:32:02 10° W 16:36:08 56° SSW 16:40:05 10° ESE daylight
02 Apr - 18:19:25 10° WSW 18:21:25 13° SW 18:23:25 10° S daylight
03 Apr - 10:37:57 10° SSW 10:42:57 33° SSE 10:47:22 10° E visible
03 Apr - 12:23:34 10° WSW 12:28:47 85° SSE 12:33:19 10° ENE visible
03 Apr - 14:10:10 10° W 14:14:52 70° N 14:19:04 10° E daylight
03 Apr - 15:56:29 10° W 16:00:46 64° SSW 16:04:46 10° ESE daylight
03 Apr - 17:43:33 10° WSW 17:46:04 16° SW 17:48:35 10° S daylight
04 Apr - 10:02:23 10° SSW 10:07:25 30° SSE 10:11:53 10° E visible
04 Apr - 11:47:49 10° WSW 11:53:15 80° SSE 11:57:57 10° ENE visible
04 Apr - 13:34:27 10° W 13:39:21 70° N 13:43:40 10° E visible
04 Apr - 15:20:51 10° WNW 15:25:19 72° SSW 15:29:24 10° ESE daylight
04 Apr - 17:07:43 10° W 17:10:41 19° SW 17:13:34 10° SSE daylight
05 Apr - 09:26:48 10° SSW 09:31:48 27° SSE 09:36:18 10° E visible
05 Apr - 11:12:00 10° WSW 11:17:39 74° SSE 11:22:31 10° ENE visible
05 Apr - 12:58:38 10° W 13:03:47 71° N 13:08:14 10° E visible
05 Apr - 14:45:09 10° WNW 14:49:48 79° SSW 14:53:59 10° ESE daylight
05 Apr - 16:31:53 10° W 16:35:14 23° SSW 16:38:27 10° SSE daylight
06 Apr - 08:51:11 10° SSW 08:56:08 25° SSE 09:00:38 10° E night (unlit)
06 Apr - 10:36:07 10° WSW 10:41:59 69° SSE 10:47:01 10° ENE visible
06 Apr - 12:22:45 10° W 12:28:07 73° N 12:32:45 10° E visible
06 Apr - 14:09:22 10° WNW 14:14:14 86° SSW 14:18:31 10° ESE daylight
06 Apr - 15:56:01 10° W 15:59:45 27° SSW 16:03:14 10° SSE daylight
07 Apr - 08:15:35 10° SSW 08:20:25 23° SE 08:24:50 10° E night (unlit)
07 Apr - 10:00:13 10° WSW 10:06:14 63° SSE 10:11:27 10° ENE visible
07 Apr - 11:46:47 10° W 11:52:24 75° N 11:57:13 10° E visible
07 Apr - 13:33:30 10° WNW 13:38:35 88° NNE 13:43:00 10° ESE daylight
07 Apr - 15:20:07 10° W 15:24:11 32° SSW 15:27:55 10° SSE daylight
08 Apr - 07:40:01 10° S 07:44:38 20° SE 07:48:56 10° E night (unlit)
08 Apr - 09:24:15 10° SW 09:30:26 58° SSE 09:35:49 10° E visible
08 Apr - 11:10:45 10° W 11:16:36 78° N 11:21:37 10° E visible
08 Apr - 12:57:32 10° WNW 13:02:51 83° NNE 13:07:26 10° E visible
08 Apr - 14:44:09 10° W 14:48:34 38° SSW 14:52:32 10° SE daylight
